TimeMDT,TemperatureF,Dew PointF,Humidity,Sea Level PressureIn,VisibilityMPH,Wind Direction,Wind SpeedMPH,Gust SpeedMPH,PrecipitationIn,Events,Conditions,WindDirDegrees,DateUTC
12:00 AM,34.9,28.0,76,30.22,-9999.0,SW,3.5,-,N/A,,Unknown,220,2012-10-07 06:00:00
1:00 AM,32.9,26.1,76,30.21,-9999.0,SSW,2.3,-,N/A,,Unknown,210,2012-10-07 07:00:00
2:00 AM,31.8,25.9,79,30.18,-9999.0,SW,2.3,-,N/A,,Unknown,220,2012-10-07 08:00:00
3:00 AM,30.4,25.5,82,30.17,-9999.0,SW,3.5,-,N/A,,Unknown,230,2012-10-07 09:00:00
4:00 AM,30.7,25.5,81,30.15,-9999.0,SSE,1.2,-,N/A,,Unknown,160,2012-10-07 10:00:00
5:00 AM,33.6,26.4,75,30.15,-9999.0,WSW,4.6,-,N/A,,Unknown,250,2012-10-07 11:00:00
6:00 AM,33.3,26.2,75,30.18,-9999.0,SW,3.5,-,N/A,,Unknown,230,2012-10-07 12:00:00
8:00 AM,31.3,25.9,80,30.20,-9999.0,SW,4.6,-,N/A,,Unknown,230,2012-10-07 14:00:00
9:00 AM,35.1,26.6,71,30.20,-9999.0,West,4.6,-,N/A,,Unknown,260,2012-10-07 15:00:00
10:00 AM,37.8,27.7,67,30.19,-9999.0,West,4.6,-,N/A,,Unknown,260,2012-10-07 16:00:00
11:00 AM,39.6,28.2,64,30.16,-9999.0,WSW,4.6,-,N/A,,Unknown,240,2012-10-07 17:00:00
12:00 PM,45.1,28.9,53,30.12,-9999.0,WSW,5.8,-,N/A,,Unknown,240,2012-10-07 18:00:00
1:00 PM,49.6,29.5,46,30.10,-9999.0,SW,8.1,-,N/A,,Unknown,220,2012-10-07 19:00:00
2:00 PM,55.9,29.3,36,30.05,-9999.0,SW,6.9,-,N/A,,Unknown,230,2012-10-07 20:00:00
3:00 PM,56.7,28.4,34,30.01,-9999.0,SW,8.1,-,N/A,,Unknown,220,2012-10-07 21:00:00
4:00 PM,58.5,28.9,33,29.98,-9999.0,SW,6.9,-,N/A,,Unknown,230,2012-10-07 22:00:00
5:00 PM,57.9,29.5,34,29.98,-9999.0,WSW,3.5,-,N/A,,Unknown,240,2012-10-07 23:00:00
6:00 PM,57.0,30.0,36,29.99,-9999.0,West,4.6,-,N/A,,Unknown,260,2012-10-08 00:00:00
7:00 PM,54.9,31.3,41,29.99,-9999.0,WSW,3.5,-,N/A,,Unknown,250,2012-10-08 01:00:00
8:00 PM,53.1,31.6,44,29.99,-9999.0,WSW,3.5,-,N/A,,Unknown,250,2012-10-08 02:00:00
9:00 PM,52.3,31.6,45,29.98,-9999.0,West,4.6,-,N/A,,Unknown,260,2012-10-08 03:00:00
10:00 PM,48.0,34.0,58,29.97,-9999.0,South,3.5,-,N/A,,Unknown,190,2012-10-08 04:00:00
11:00 PM,46.2,33.4,61,29.97,-9999.0,ENE,2.3,-,N/A,,Unknown,70,2012-10-08 05:00:00